When you browse on this site, cookies collect data to enhance your experience and personalize the content and advertising you see.
Visit our Privacy Policy to learn more. By continuing to use the site, you agree to this use of cookies and data.
  • In Hungary
  • List of Countries
  • For 7 days
  • Water Temperature
  • Satellite Maps
  • Weather Map
  • News
  • Weather Widgets
  • user-avatar
    Login

    Hourly Weather Koson

    Today, 19 December, Wednesday

    Time Temperature Precipitation Wind Pressure Humidity
    00:00 +4°C° 0.2 mm 1 mps 685 mmHg 76%
    01:00 +4°C° 0.2 mm 1 mps 684 mmHg 77%
    02:00 +4°C° 0.2 mm 1 mps 684 mmHg 78%
    03:00 +4°C° 0.3 mm 1 mps 684 mmHg 79%
    04:00 +3°C° 0.3 mm 0 mps 684 mmHg 81%
    05:00 +3°C° 0 mm 0 mps 684 mmHg 83%
    06:00 +3°C° 0.3 mm 0 mps 684 mmHg 84%
    07:00 +4°C° 0.3 mm 1 mps 684 mmHg 85%
    08:00 +4°C° 0.3 mm 1 mps 684 mmHg 85%
    09:00 +4°C° 0.2 mm 1 mps 684 mmHg 84%
    10:00 +5°C° 0.2 mm 1 mps 684 mmHg 83%
    11:00 +5°C° 0 mm 1 mps 685 mmHg 82%
    12:00 +5°C° 0.3 mm 1 mps 685 mmHg 84%
    13:00 +5°C° 0.3 mm 1 mps 685 mmHg 85%
    14:00 +5°C° 0.3 mm 1 mps 685 mmHg 86%
    15:00 +5°C° 0.4 mm 1 mps 685 mmHg 88%
    16:00 +5°C° 0.4 mm 1 mps 685 mmHg 91%
    17:00 +4°C° 0.4 mm 1 mps 686 mmHg 93%
    18:00 +4°C° 0.5 mm 1 mps 686 mmHg 93%
    19:00 +4°C° 0.5 mm 1 mps 687 mmHg 93%
    20:00 +4°C° 0.5 mm 1 mps 687 mmHg 93%
    21:00 +3°C° 0.5 mm 2 mps 688 mmHg 92%
    22:00 +3°C° 0.5 mm 2 mps 688 mmHg 90%
    23:00 +3°C° 0.5 mm 2 mps 688 mmHg 89%

    Tomorrow, 20 December, Thursday

    Time Temperature Precipitation Wind Pressure Humidity
    00:00 +3°C° 0.4 mm 2 mps 689 mmHg 88%
    01:00 +3°C° 0.4 mm 2 mps 689 mmHg 87%
    02:00 +3°C° 0.4 mm 1 mps 689 mmHg 86%
    03:00 +3°C° 0.3 mm 1 mps 690 mmHg 86%
    04:00 +3°C° 0.3 mm 1 mps 690 mmHg 85%
    05:00 +3°C° 0.3 mm 1 mps 690 mmHg 85%
    06:00 +2°C° 0.3 mm 1 mps 691 mmHg 85%
    07:00 +2°C° 0.3 mm 1 mps 691 mmHg 85%
    08:00 +2°C° 0.3 mm 1 mps 692 mmHg 85%
    09:00 +2°C° 0.2 mm 1 mps 692 mmHg 83%
    10:00 +2°C° 0.2 mm 1 mps 692 mmHg 81%
    11:00 +3°C° 0.2 mm 1 mps 692 mmHg 79%
    12:00 +3°C° 0.1 mm 1 mps 692 mmHg 78%
    13:00 +3°C° 0.1 mm 1 mps 692 mmHg 76%
    14:00 +2°C° 0.1 mm 2 mps 692 mmHg 75%
    15:00 +3°C° 0.1 mm 1 mps 693 mmHg 78%
    16:00 +2°C° 0.1 mm 1 mps 693 mmHg 80%
    17:00 +1°C° 0.1 mm 1 mps 693 mmHg 82%
    18:00 0°C° 0 mm 1 mps 693 mmHg 82%
    19:00 0°C° 0 mm 1 mps 693 mmHg 82%
    20:00 -3°C° 0 mm 2 mps 693 mmHg 81%
    21:00 -3°C° 0 mm 2 mps 693 mmHg 77%
    22:00 -3°C° 0 mm 2 mps 693 mmHg 74%
    23:00 -3°C° 0 mm 2 mps 693 mmHg 70%

    Day after tomorrow, 21 December, Friday

    Time Temperature Precipitation Wind Pressure Humidity
    00:00 -3°C° 0 mm 2 mps 692 mmHg 67%
    01:00 -3°C° 0 mm 2 mps 692 mmHg 64%
    02:00 -4°C° 0 mm 2 mps 692 mmHg 61%
    03:00 -4°C° 0 mm 2 mps 692 mmHg 60%
    04:00 -4°C° 0 mm 2 mps 691 mmHg 58%
    05:00 -4°C° 0 mm 2 mps 691 mmHg 56%
    06:00 -4°C° 0 mm 2 mps 690 mmHg 55%
    07:00 -4°C° 0 mm 2 mps 690 mmHg 54%
    08:00 -4°C° 0 mm 2 mps 690 mmHg 52%
    09:00 -2°C° 0 mm 2 mps 690 mmHg 50%
    10:00 +1°C° 0 mm 2 mps 689 mmHg 48%
    11:00 +3°C° 0 mm 2 mps 689 mmHg 46%
    12:00 +4°C° 0 mm 2 mps 688 mmHg 46%
    13:00 +4°C° 0 mm 2 mps 687 mmHg 45%
    14:00 +6°C° 0 mm 1 mps 687 mmHg 45%
    15:00 +5°C° 0 mm 1 mps 687 mmHg 46%
    16:00 +2°C° 0 mm 2 mps 686 mmHg 47%
    17:00 +1°C° 0 mm 2 mps 686 mmHg 49%
    18:00 +1°C° 0 mm 2 mps 686 mmHg 47%
    19:00 +1°C° 0 mm 2 mps 686 mmHg 46%
    20:00 -1°C° 0 mm 2 mps 686 mmHg 45%
    21:00 +1°C° 0 mm 2 mps 685 mmHg 45%
    22:00 +1°C° 0 mm 2 mps 685 mmHg 45%
    23:00 +1°C° 0 mm 2 mps 685 mmHg 44%

    22 December, Saturday

    Time Temperature Precipitation Wind Pressure Humidity
    00:00 +1°C° 0 mm 2 mps 684 mmHg 45%
    01:00 +1°C° 0 mm 2 mps 684 mmHg 46%
    02:00 +2°C° 0 mm 1 mps 684 mmHg 47%
    03:00 +2°C° 0 mm 1 mps 684 mmHg 49%
    04:00 +2°C° 0 mm 1 mps 683 mmHg 50%
    05:00 +1°C° 0 mm 2 mps 683 mmHg 52%
    06:00 +2°C° 0 mm 1 mps 683 mmHg 54%
    07:00 +2°C° 0 mm 1 mps 683 mmHg 56%
    08:00 +3°C° 0 mm 1 mps 684 mmHg 58%
    09:00 +4°C° 0.1 mm 1 mps 684 mmHg 58%
    10:00 +4°C° 0.1 mm 1 mps 684 mmHg 57%
    11:00 +5°C° 0.1 mm 1 mps 684 mmHg 57%
    12:00 +6°C° 0.1 mm 1 mps 684 mmHg 58%
    13:00 +6°C° 0.1 mm 1 mps 684 mmHg 58%
    14:00 +7°C° 0.1 mm 1 mps 684 mmHg 58%
    15:00 +6°C° 0.1 mm 1 mps 684 mmHg 60%
    16:00 +5°C° 0.1 mm 1 mps 684 mmHg 63%
    17:00 +4°C° 0.1 mm 1 mps 684 mmHg 65%
    18:00 +4°C° 0.2 mm 1 mps 684 mmHg 66%
    19:00 +4°C° 0.2 mm 1 mps 685 mmHg 67%
    20:00 +4°C° 0.2 mm 1 mps 685 mmHg 67%
    21:00 +4°C° 0.1 mm 1 mps 685 mmHg 68%
    22:00 +4°C° 0.1 mm 1 mps 685 mmHg 68%
    23:00 +3°C° 0.1 mm 1 mps 685 mmHg 69%

    23 December, Sunday

    Time Temperature Precipitation Wind Pressure Humidity
    00:00 +3°C° 0.1 mm 1 mps 685 mmHg 69%
    01:00 +3°C° 0.1 mm 1 mps 685 mmHg 69%
    02:00 +3°C° 0.1 mm 1 mps 685 mmHg 70%
    03:00 +3°C° 0.1 mm 1 mps 685 mmHg 69%
    04:00 +2°C° 0.1 mm 1 mps 685 mmHg 69%
    05:00 +2°C° 0.1 mm 1 mps 685 mmHg 69%
    06:00 +2°C° 0 mm 1 mps 685 mmHg 69%
    07:00 +2°C° 0 mm 1 mps 685 mmHg 69%
    08:00 +2°C° 0 mm 1 mps 685 mmHg 68%
    09:00 +3°C° 0 mm 1 mps 686 mmHg 66%
    10:00 +4°C° 0 mm 1 mps 686 mmHg 64%
    11:00 +5°C° 0 mm 1 mps 686 mmHg 61%
    12:00 +6°C° 0 mm 1 mps 686 mmHg 61%
    13:00 +6°C° 0 mm 1 mps 686 mmHg 61%
    14:00 +6°C° 0 mm 1 mps 685 mmHg 61%
    15:00 +5°C° 0 mm 1 mps 686 mmHg 63%
    16:00 +4°C° 0 mm 1 mps 686 mmHg 65%
    17:00 +4°C° 0 mm 1 mps 686 mmHg 67%
    18:00 +3°C° 0 mm 1 mps 686 mmHg 67%
    19:00 +3°C° 0 mm 1 mps 686 mmHg 67%
    20:00 +3°C° 0 mm 1 mps 686 mmHg 67%
    21:00 +2°C° 0 mm 1 mps 686 mmHg 67%
    22:00 +2°C° 0 mm 1 mps 686 mmHg 67%
    23:00 +2°C° 0 mm 1 mps 686 mmHg 67%

    24 December, Monday

    Time Temperature Precipitation Wind Pressure Humidity
    00:00 +2°C° 0 mm 1 mps 686 mmHg 67%
    01:00 +2°C° 0 mm 1 mps 686 mmHg 68%
    02:00 +2°C° 0 mm 1 mps 686 mmHg 68%
    03:00 +2°C° 0.1 mm 1 mps 686 mmHg 69%
    04:00 +1°C° 0.1 mm 1 mps 686 mmHg 69%
    05:00 +1°C° 0.1 mm 1 mps 686 mmHg 70%
    06:00 +1°C° 0.1 mm 1 mps 686 mmHg 70%
    07:00 +1°C° 0.1 mm 1 mps 686 mmHg 70%
    08:00 +1°C° 0.1 mm 1 mps 686 mmHg 71%
    09:00 +2°C° 0.1 mm 1 mps 686 mmHg 68%
    10:00 +3°C° 0.1 mm 1 mps 686 mmHg 65%
    11:00 +5°C° 0.1 mm 1 mps 686 mmHg 62%
    12:00 +5°C° 0 mm 1 mps 686 mmHg 61%
    13:00 +5°C° 0 mm 1 mps 686 mmHg 60%
    14:00 +6°C° 0 mm 1 mps 685 mmHg 59%
    15:00 +5°C° 0 mm 1 mps 685 mmHg 61%
    16:00 +4°C° 0 mm 1 mps 685 mmHg 63%
    17:00 +3°C° 0 mm 1 mps 685 mmHg 65%
    18:00 +3°C° 0 mm 1 mps 685 mmHg 66%
    19:00 +3°C° 0 mm 1 mps 685 mmHg 66%
    20:00 +2°C° 0 mm 1 mps 685 mmHg 66%
    21:00 +2°C° 0 mm 1 mps 685 mmHg 65%
    22:00 +2°C° 0 mm 1 mps 685 mmHg 65%
    23:00 +1°C° 0 mm 2 mps 685 mmHg 65%
    Show more